Regional Weather Roundup
Issued by NWS Bismarck, ND

Home | Current Version | Previous Version | Graphics & Text | Print | Product List | Glossary On
Versions: 1 2 3 4 5 6 7 8 9 10 11 12 13 14 15 16 17 18 19 20 21 22 23 24 25 26 27 28 29 30 31 32 33 34 35 36 37 38 39 40 41 42 43 44 45 46 47 48 49 50
000
ASUS43 KBIS 251010
RWRBIS

NWR BROADCAST TEXT
NATIONAL WEATHER SERVICE BISMARCK ND
500 AM CDT THU MAY 25 2017

NOTE: "FAIR" INDICATES FEW OR NO CLOUDS BELOW 12,000 FEET WITH NO
SIGNIFICANT WEATHER AND/OR OBSTRUCTIONS TO VISIBILITY.


CITY           SKY/WX    TMP DP  RH WIND       PRES   REMARKS
WILLISTON      FAIR      49  47  93 S6        29.37F
MINOT          LGT RAIN  53  49  86 SE9       29.38F
MINOT AFB      FAIR      52  50  94 S14       29.38R
BISMARCK       CLOUDY    53  48  83 SE8       29.41F
DICKINSON      FOG       43  42  97 CALM      29.39S VSB 1/4
GARRISON         N/A     50  48  93 SE13      29.38F
HETTINGER ARPT FAIR      44  42  93 W5        29.41R
JAMESTOWN      MOCLDY    50  43  77 SE24G31   29.45F
HAZEN          CLOUDY    52  50  93 SE8       29.41F
LINTON         FAIR      50  50 100 SE20G29   29.40F
MANDAN         CLOUDY    52  48  87 SE15      29.42S
STANLEY        FAIR      50  50 100 S7G15     29.40R
TIOGA          FAIR      48  48 100 S7        29.38S
WATFORD CITY   FAIR      48  48 100 SW8       29.38R
$$

CITY           SKY/WX    TMP DP  RH WIND       PRES   REMARKS
GRAND FORKS    FAIR      49  42  77 SE12      29.57F
GRAND FORKS AF FAIR      47  42  82 SE9       29.57F
DEVILS LAKE    MOCLDY    51  44  77 SE23G29   29.48F
FARGO          FAIR      51  42  71 SE12      29.59F
CAVALIER       FAIR      50  41  71 SE10      29.56F
GRAFTON        FAIR      48  43  81 SE13      29.59F
GWINNER        SUNNY     48  45  87 MISG      29.57R
LANGDON        FAIR      50  45  81 SE22      29.53F
ROLLA          CLOUDY    50  45  81 S20       29.47F
$$

CITY           SKY/WX    TMP DP  RH WIND       PRES   REMARKS
ABERDEEN       LGT RAIN  51  44  77 SE16G23   29.50F
MOBRIDGE       FAIR      52  43  71 SE16      29.35F
BUFFALO          N/A     46  44  93 NW10      29.38R
RAPID CITY     FAIR      48  43  82 NW7       29.45R
GLASGOW        CLOUDY    51  36  56 SW20G26   29.31F
SIDNEY         FAIR      45  45 100 SW9       29.39F
WOLF POINT     FAIR      45  25  45 S10       29.35S
GLENDIVE       FAIR      42  32  67 W6        29.42S
MILES CITY     FAIR      45  22  40 W7        29.45F
BAKER          FAIR      42  40  92 CALM      29.45R
$$

CITY           SKY/WX    TMP DP  RH WIND       PRES   REMARKS
BILLINGS       FAIR      48  21  34 W13       29.54R
GREAT FALLS    LGT RAIN  41  37  86 SW18      29.59S
REGINA         PTCLDY    41  30  65 S10       29.25S
ESTEVAN        PTCLDY    48  46  93 S9        29.32F
$$





USA.gov is the U.S. government's official web portal to all federal, state and local government web resources and services.